GW3951 Weather Reports


Display with metric or nautical units.
time (UTC)temp
F
wind
direction
speed
MPH
gust
MPH
rain 1hr
in
rain 24hr
in
rain mn
in
humidity
%
barometer
mb
20260906110035 0 0.0 0.0 0.00 0.62 0.00 1011.2
20260906104538 0 0.0 0.0 0.00 0.62 0.00 1011.0
20260906103035 0 0.0 0.0 0.00 0.62 0.00 1010.9
20260906101533 0 0.0 0.0 0.00 0.62 0.00 1010.9
20260906100033 0 0.0 0.0 0.00 0.62 0.00 1010.7
20260906094534 0 0.0 0.0 0.00 0.62 0.00 1010.6
20260906093032 0 0.0 0.0 0.00 0.62 0.00 1010.3
20260906091535 0 0.0 0.0 0.00 0.62 0.00 1010.2
20260906090032 0 0.0 0.0 0.00 0.62 0.00 1010.3
20260906084534 0 0.0 0.0 0.00 0.62 0.00 1010.2
20260906083036 0 0.0 0.0 0.00 0.62 0.00 97 1010.4
20260906081513 71 17 0.0 0.0 0.00 0.62 0.00 97 1010.6
20260906080025 71 17 0.0 0.0 0.00 0.62 0.00 97 1010.6
20260906074529 71 17 0.0 0.0 0.00 0.62 0.00 97 1010.7
20260906073033 71 17 0.0 0.0 0.00 0.62 0.00 97 1010.9
20260906071512 71 17 0.0 0.0 0.00 0.62 0.00 96 1010.7
20260906070016 71 17 0.0 0.0 0.00 0.62 0.00 96 1011.1
20260906064523 71 17 0.0 0.0 0.00 0.62 0.00 96 1011.2
20260906063028 71 17 0.0 0.0 0.00 0.62 0.00 96 1011.0
20260906061534 71 17 0.0 0.0 0.00 0.62 0.00 96 1011.1
20260906060015 71 17 0.0 0.0 0.00 0.62 0.00 96 1011.2
20260906054520 71 17 0.0 0.0 0.00 0.62 0.00 96 1011.0
20260906053028 72 17 0.0 2.0 0.00 0.62 0.00 95 1011.1
20260906051532 72 17 0.0 1.0 0.00 0.62 0.00 95 1011.2
20260906050030 72 17 0.0 2.0 0.00 0.62 0.00 96 1011.4
20260906044523 72 17 0.0 2.0 0.00 0.62 0.00 96 1011.5
20260906043024 72 17 0.0 2.0 0.00 0.62 0.00 95 1011.5
20260906041528 72 17 0.0 0.0 0.00 0.62 0.00 95 1011.7
20260906040035 73 17 0.0 2.0 0.00 0.62 0.00 96 1011.8
20260906034520 73 17 0.0 3.0 0.00 0.62 0.62 96 1012.0
20260906033024 73 9 1.0 4.0 0.00 0.62 0.62 96 1011.9
20260906031526 73 282 1.0 2.0 0.00 0.62 0.62 96 1011.9
20260906030028 73 11 0.0 2.0 0.00 0.62 0.62 95 1012.0
20260906024530 73 11 0.0 3.0 0.00 0.62 0.62 95 1011.9
20260906023022 73 336 0.0 4.0 0.00 0.62 0.62 95 1011.5
20260906021504 73 243 1.0 4.0 0.00 0.62 0.62 95 1011.1
20260906020005 74 119 1.0 3.0 0.00 0.62 0.62 95 1010.8
20260906014512 73 100 2.0 10.0 0.00 0.62 0.62 94 1011.2
20260906013026 73 328 2.0 3.0 0.01 0.62 0.62 94 1010.3
20260906011523 73 103 1.0 7.0 0.36 0.62 0.62 94 1008.9
20260906010006 73 74 0.0 2.0 0.62 0.62 0.62 93 1009.4
20260906004510 73 165 1.0 6.0 0.62 0.62 0.62 91 1010.2
20260906003012 74 252 3.0 13.0 0.61 0.61 0.61 87 1011.5
20260906001519 78 250 5.0 17.0 0.26 0.26 0.26 78 1012.5
20260906000035 85 5 8.0 12.0 0.00 0.00 0.00 67 1011.7
20260905234504 86 228 0.0 2.0 0.00 0.00 0.00 81 1011.3
20260905233016 86 225 0.0 0.0 0.00 0.00 0.00 81 1010.9
20260905231518 87 208 0.0 1.0 0.00 0.00 0.00 78 1011.1
20260905230024 89 110 1.0 3.0 0.00 0.00 0.00 75 1010.9
20260905224527 90 220 2.0 7.0 0.00 0.00 0.00 68 1010.6
20260905223034 92 182 2.0 5.0 0.00 0.00 0.00 63 1010.6
20260905221522 92 200 3.0 5.0 0.00 0.00 0.00 64 1010.4
20260905220021 91 167 1.0 9.0 0.00 0.00 0.00 64 1010.2
20260905214531 92 146 2.0 7.0 0.00 0.00 0.00 63 1010.3
20260905213031 94 152 3.0 6.0 0.00 0.00 0.00 58 1010.0
20260905211519 94 352 1.0 3.0 0.00 0.00 0.00 55 1010.1
20260905210020 94 139 0.0 2.0 0.00 0.00 0.00 56 1010.0
20260905204523 94 360 2.0 6.0 0.00 0.00 0.00 59 1009.9
20260905203006 94 227 2.0 5.0 0.00 0.00 0.00 57 1009.9
20260905201510 94 78 0.0 7.0 0.00 0.00 0.00 57 1009.9
20260905200016 94 86 3.0 5.0 0.00 0.00 0.00 57 1010.0
20260905194522 94 263 1.0 5.0 0.00 0.00 0.00 59 1010.1
20260905193027 95 202 2.0 5.0 0.00 0.00 0.00 58 1010.3
20260905191508 94 131 0.0 5.0 0.00 0.00 0.00 60 1010.7
20260905190012 92 218 2.0 7.0 0.00 0.00 0.00 62 1011.1
20260905184521 93 45 1.0 9.0 0.00 0.00 0.00 60 1011.3
20260905183024 92 302 2.0 6.0 0.00 0.00 0.00 62 1011.5
20260905181527 93 352 2.0 7.0 0.00 0.00 0.00 62 1011.7
20260905180012 92 266 3.0 7.0 0.00 0.00 0.00 63 1011.8
20260905174515 92 196 1.0 10.0 0.00 0.00 0.00 66 1012.1
20260905173023 91 275 1.0 8.0 0.00 0.00 0.00 68 1012.4
20260905171534 89 281 4.0 6.0 0.00 0.00 0.00 69 1012.6
20260905170030 90 101 0.0 5.0 0.00 0.00 0.00 67 1013.0
20260905164532 90 282 0.0 4.0 0.00 0.00 0.00 71 1013.2
20260905163016 89 203 4.0 8.0 0.00 0.00 0.00 72 1013.4
20260905161524 88 287 3.0 7.0 0.00 0.00 0.00 75 1013.7
20260905160029 88 261 1.0 7.0 0.00 0.00 0.00 75 1013.9
20260905154537 87 249 2.0 4.0 0.00 0.00 0.00 75 1014.1
20260905153030 86 223 2.0 8.0 0.00 0.00 0.00 77 1014.3
20260905151524 86 269 2.0 4.0 0.00 0.00 0.00 79 1014.2
20260905150035 85 264 2.0 8.0 0.00 0.00 0.00 81 1014.3
20260905144533 85 335 4.0 8.0 0.00 0.00 0.00 81 1014.4
20260905143030 84 254 1.0 6.0 0.00 0.00 0.00 82 1014.3
20260905141520 83 52 2.0 8.0 0.00 0.00 0.00 84 1014.3
20260905140028 83 13 1.0 6.0 0.00 0.00 0.00 86 1014.4
20260905134506 81 291 2.0 8.0 0.00 0.00 0.00 88 1014.4
20260905133011 80 264 3.0 7.0 0.00 0.00 0.00 91 1014.5
20260905131517 79 238 2.0 4.0 0.00 0.00 0.00 93 1014.6
20260905130023 78 304 2.0 7.0 0.00 0.00 0.00 96 1014.7
20260905124530 77 281 2.0 4.0 0.00 0.00 0.00 97 1014.4
20260905123032 76 266 1.0 3.0 0.00 0.00 0.00 97 1014.5
20260905121517 75 78 0.0 0.0 0.00 0.00 0.00 97 1014.5
20260905120026 74 78 0.0 0.0 0.00 0.00 0.00 97 1014.3
20260905114527 74 182 0.0 0.0 0.00 0.00 0.00 97 1014.4
20260905113041 0 0.0 0.0 0.00 0.00 0.00 1014.3
20260905111536 0 0.0 0.0 0.00 0.00 0.00 1014.0